Weather in Patzcuaro

Mexico     19°31′14″N   101°36′31″W
temp.,
°C
wind,
m/s
gust,
m/s
humid.,
%
clouds,
%
prec.,
mm/h
press.,
hPa
HPBL,
m
24 july, sat
sat2401:00+12e1195100 3.1 102426
04:00+12sse118976 0.0 102210
07:00+10w008830 0.0 102310
10:00+17e11556 0.0 1022401
13:00+22e123422 0.0 10191822
16:00+23e22377 0.0 10162437
19:00+19sse12613 0.3 10151102
22:00+12nw009145 2.1 102111
25 july, sun
sun2501:00+12s1193100 3.5 102213
04:00+11wnw11918 0.0 102011
07:00+10nne00905 0.0 102011
10:00+17nne11722 0.0 1019329
13:00+21ene12533 1.2 10171437
16:00+21ese235766 1.5 10141745
19:00+19sse126810 3.2 1013683
22:00+13nw2293100 3.1 101841
26 july, mon
mon2601:00+12sw1194100 4.2 102029
04:00+11wnw008825 0.0 101710
07:00+10nne01926 0.0 101811
10:00+16ne117631 0.0 1018355
13:00+21ene124915 0.4 10151844
16:00+20se2356100 1.7 10141615
19:00+16s1290100 4.1 101681
22:00+13s2292100 4.4 101947
27 july, tue
tue2701:00+11w1193100 4.9 102010
04:00+11sw1190100 0.0 101810
07:00+10wsw008890 0.0 101911
10:00+16nne117386 0.0 1019313
13:00+21ne225087 0.3 10161823
16:00+21e244896 1.1 10141831
19:00+18sse2378100 2.3 1015111
22:00+12sse2294100 1.5 101940
28 july, wed
wed2801:00+12wnw2190100 1.5 101919
04:00+11n0190100 0.0 101811
07:00+10n119098 0.0 101911
10:00+17nne12756 0.0 1018369
13:00+22ne344642 0.1 10151877
16:00+22ene344228 0.3 10132200
19:00+19se236643 0.9 1014509
22:00+13sw119166 1.1 101711